Wind_Speed
30 33 35 35 35 35 35 36 37 37 37 36 36 35 35 35 34 34 34 35 36 37 38 39 40 40 41 43 44 44 43 41 41 40 39 38 36 35 33 31 32 32
33 35 36 35 35 36 36 36 36 36 35 34 35 35 36 38 38 37 37 37 37 39 40 42 44 44 44 45 45 44 43 42 41 41 39 38 37 36 33 32 33 33
33 34 35 34 34 35 36 35 35 35 35 36 37 38 40 42 42 41 40 40 39 40 42 44 46 47 47 48 46 43 41 41 40 40 40 39 39 36 33 33 33 34
33 34 33 32 33 34 34 35 36 38 38 38 38 40 41 42 43 44 43 43 44 45 47 48 49 49 50 48 46 43 41 41 40 40 40 39 38 35 33 33 33 33
34 34 33 34 34 34 35 37 39 40 40 39 38 39 41 43 46 47 45 46 48 50 52 52 50 50 50 49 47 44 42 41 40 40 38 36 33 32 32 33 34 34
37 36 35 35 35 35 37 38 38 38 38 38 38 40 43 47 50 49 46 46 48 51 52 51 48 48 49 49 47 44 42 40 40 38 36 33 32 32 33 34 34 34
37 37 36 35 34 35 35 35 36 35 35 36 38 40 45 50 52 50 48 47 47 48 47 46 45 45 45 44 44 43 41 39 39 37 35 34 35 34 34 34 34 34
37 37 38 36 35 35 35 35 36 36 38 42 43 44 48 52 51 49 47 45 43 42 41 40 40 40 39 39 39 39 39 39 39 38 37 37 38 36 34 34 34 33
39 40 41 41 40 39 39 40 40 42 47 51 50 50 51 51 49 46 44 42 41 41 40 39 39 38 38 38 37 37 38 38 40 40 40 41 41 40 38 37 36 36
42 43 44 45 45 44 46 48 50 52 54 54 52 51 50 47 45 43 42 42 42 43 42 42 42 42 41 41 40 40 40 40 40 41 42 42 43 43 41 40 40 41
46 47 47 49 49 50 52 53 54 54 54 52 50 48 46 44 44 43 42 43 44 45 45 45 45 44 44 44 44 43 43 43 43 44 43 43 43 42 40 41 42 44
50 51 52 53 54 54 55 54 54 53 52 50 47 46 45 44 44 44 45 46 47 47 47 46 46 46 47 47 47 46 46 46 46 47 46 45 45 44 43 45 47 48
53 54 55 55 55 55 55 54 53 51 48 47 46 46 46 47 47 48 49 50 50 49 48 47 48 49 50 49 49 49 49 49 50 50 50 49 48 47 47 48 49 48
55 55 56 56 55 54 53 51 49 47 46 46 46 47 49 50 51 51 52 51 51 50 49 49 50 51 52 52 52 52 53 53 53 53 54 53 52 51 50 50 50 48
56 56 56 54 53 51 49 47 46 46 47 48 49 50 51 52 52 52 52 52 51 50 50 51 53 54 55 55 56 56 56 57 57 57 57 56 55 54 53 52 52 51
55 54 52 50 48 47 47 47 48 49 50 51 52 52 52 52 52 51 51 51 51 52 53 54 55 57 57 58 58 58 58 59 59 58 58 57 56 56 55 54 54 53
50 48 47 47 47 48 49 50 51 52 53 53 53 52 52 51 51 50 51 53 54 55 56 56 57 58 58 59 59 60 60 60 59 59 58 57 56 55 55 54 54 54
47 47 48 49 50 51 52 53 53 53 53 53 52 51 50 50 51 52 55 56 57 57 58 58 58 58 59 60 60 59 59 58 58 57 57 56 55 55 55 54 54 54
48 50 52 53 54 55 55 54 54 54 53 51 50 49 50 51 53 56 58 59 59 59 60 60 60 61 61 61 60 58 57 56 56 55 55 55 55 55 55 55 56 56
52 54 55 56 57 56 55 55 54 53 51 50 50 50 51 53 56 59 61 61 61 61 62 63 63 63 62 61 60 58 57 55 55 54 54 54 55 55 56 56 57 57
56 57 58 58 57 55 55 54 53 52 51 51 51 53 55 57 60 62 64 64 63 64 65 65 66 65 64 62 60 58 57 55 55 54 54 54 55 55 55 56 56 56
59 59 58 57 56 55 55 54 53 52 53 53 55 57 59 61 64 66 67 66 66 67 67 68 68 67 65 62 60 58 56 54 54 54 54 54 54 54 55 55 56 56
60 59 57 56 56 55 55 55 54 55 55 57 59 61 63 65 68 70 70 70 69 69 69 69 69 66 63 60 58 56 54 53 53 53 54 54 55 55 56 56 57 58
59 58 57 57 57 57 57 57 57 57 58 60 62 64 67 69 71 72 72 71 71 70 71 71 69 65 61 58 56 54 53 52 52 53 54 56 56 57 58 58 59 59
59 59 59 59 60 60 59 59 59 60 62 63 65 67 70 72 72 72 72 73 73 73 73 72 69 65 60 57 54 53 53 53 54 55 56 57 57 57 58 58 58 58
61 61 61 62 62 62 61 61 62 63 64 66 68 70 72 73 72 73 74 75 74 74 74 73 69 64 59 56 55 54 55 55 56 57 57 56 56 55 55 55 55 55
Wind_Direction
310 315 317 317 316 316 315 313 312 312 311 310 308 309 313 317 317 316 315 314 313 312 312 313 313 312 312 312 311 309 309 310 313 315 315 316 315 313 311 308 307 303
306 310 312 312 313 313 312 312 311 310 309 307 307 309 313 318 319 316 313 312 310 309 308 308 307 307 309 311 309 307 306 307 309 311 310 311 311 310 307 305 304 300
301 305 307 309 310 311 310 310 310 310 309 308 310 312 315 317 319 316 313 309 307 306 306 305 303 302 305 307 306 304 303 304 305 306 306 308 308 306 304 303 301 297
297 301 303 304 307 307 306 307 310 311 311 311 312 312 313 315 316 314 310 306 305 305 306 305 302 301 301 303 302 300 301 302 302 301 303 304 305 304 302 301 298 294
297 299 300 301 303 304 305 307 309 311 311 311 310 310 309 311 312 310 307 304 304 304 306 305 303 301 301 301 300 299 300 300 299 300 301 303 304 302 301 300 296 291
295 295 297 300 302 303 305 305 306 309 310 310 311 309 308 309 311 310 306 302 300 300 301 302 302 302 302 302 301 300 301 300 300 300 301 304 306 304 300 298 294 290
293 294 297 299 300 301 302 302 304 306 306 307 309 307 305 307 309 308 305 301 298 298 300 302 304 305 304 304 302 302 303 303 302 301 301 304 308 305 300 297 293 290
295 297 300 301 301 301 299 300 302 301 302 305 306 304 304 306 307 307 305 302 301 303 305 307 309 310 310 310 308 306 305 305 305 303 302 304 306 304 300 296 293 291
297 299 301 302 303 302 299 301 302 302 304 307 307 306 306 307 308 308 308 307 307 309 310 311 312 312 314 314 312 309 306 305 304 303 303 304 304 302 299 294 291 290
298 299 301 301 302 301 301 303 305 305 307 308 309 309 309 310 310 310 309 310 310 310 310 310 310 311 311 311 310 307 305 304 303 302 303 303 302 300 297 294 292 292
300 301 302 302 303 302 303 304 305 307 308 309 310 310 310 311 310 309 309 309 309 309 308 308 308 308 308 307 306 305 303 303 302 301 301 301 300 297 295 293 293 295
300 301 302 303 304 304 304 305 306 307 308 309 309 309 309 309 308 307 306 306 307 306 306 305 305 305 305 304 304 303 302 301 301 301 300 299 298 296 294 294 294 297
300 301 302 303 304 304 305 305 306 306 307 307 307 307 307 306 305 304 304 304 305 305 305 304 303 304 304 303 303 302 301 301 301 300 299 298 297 295 294 294 294 295
301 302 303 303 304 304 304 304 305 305 306 306 306 305 305 304 304 304 303 304 304 304 304 303 303 304 303 303 303 302 301 301 300 299 298 298 297 296 295 294 293 291
301 302 303 303 303 303 304 304 305 305 305 306 305 305 304 304 304 304 304 304 305 305 305 304 304 304 303 302 302 301 300 299 298 298 297 297 296 296 295 293 292 290
301 302 303 304 305 305 305 305 305 305 305 305 305 305 304 304 304 304 305 306 306 306 305 304 303 302 301 301 300 299 298 297 296 296 295 295 295 294 293 292 291 289
302 303 304 305 305 305 305 305 304 304 305 305 305 304 304 304 305 305 306 306 306 305 304 303 302 302 302 301 300 299 297 295 294 294 293 292 292 291 290 290 289 288
302 303 304 304 305 305 305 305 304 304 304 304 304 303 304 305 306 307 307 306 305 305 304 304 304 304 304 303 302 300 298 296 294 293 292 291 290 289 289 288 288 288
301 303 304 305 305 306 306 306 306 305 304 304 303 303 304 306 307 309 309 308 307 307 307 307 307 307 307 306 304 302 300 298 296 294 292 291 289 288 288 287 287 287
303 305 306 306 306 307 307 307 306 305 304 303 303 304 305 307 310 312 313 311 310 310 310 309 309 309 309 308 306 304 301 298 296 294 292 291 289 288 287 287 287 286
305 305 305 305 305 306 306 305 305 304 303 304 304 306 308 310 312 314 314 313 312 311 312 312 312 311 310 308 305 303 300 297 295 293 292 291 290 289 288 288 287 287
303 303 303 303 304 305 305 305 305 304 304 305 306 308 310 311 313 314 315 314 314 314 314 313 312 311 308 306 304 301 299 296 294 293 292 291 291 290 290 290 289 289
301 301 301 303 304 305 305 305 305 306 306 306 308 309 310 312 313 314 315 316 316 315 314 313 311 309 307 304 302 300 298 296 295 294 293 293 292 292 291 291 290 290
299 300 302 303 304 305 306 306 307 307 307 307 308 309 311 312 313 315 316 316 315 315 314 313 311 309 306 304 301 300 299 297 296 295 294 293 292 291 290 289 288 287
299 300 302 303 305 306 307 307 307 307 307 307 308 309 310 312 313 314 315 315 314 314 314 313 311 309 306 303 301 300 299 297 296 295 294 292 291 290 289 288 287 287
299 300 302 304 305 306 306 306 306 306 306 306 307 309 310 312 312 313 314 314 313 313 313 312 311 309 305 302 300 298 297 296 295 294 293 292 291 290 289 289 288 288
Height
10718 10717 10716 10715 10714 10713 10712 10710 10709 10706 10704 10702 10700 10698 10696 10694 10692 10690 10689 10687 10685 10683 10682 10680 10678 10676 10674 10673 10671 10669 10667 10665 10662 10660 10658 10657 10656 10654 10653 10652 10651 10650
10716 10715 10714 10712 10711 10710 10708 10706 10704 10702 10700 10698 10696 10695 10693 10691 10689 10687 10685 10683 10682 10680 10679 10677 10675 10673 10671 10669 10667 10664 10662 10660 10658 10655 10653 10652 10650 10649 10648 10647 10645 10644
10714 10713 10711 10710 10708 10706 10705 10703 10701 10699 10697 10695 10693 10691 10690 10688 10686 10684 10682 10680 10678 10676 10675 10673 10671 10669 10667 10664 10662 10660 10658 10655 10653 10651 10649 10647 10646 10644 10643 10642 10640 10639
10711 10710 10709 10707 10706 10704 10702 10700 10698 10695 10693 10691 10690 10688 10686 10685 10683 10681 10679 10677 10674 10672 10670 10668 10665 10663 10662 10660 10658 10655 10653 10651 10649 10647 10645 10643 10641 10640 10638 10637 10636 10635
10707 10707 10706 10705 10703 10702 10700 10697 10695 10692 10689 10688 10686 10685 10683 10682 10680 10678 10675 10673 10670 10667 10665 10663 10660 10658 10656 10654 10652 10650 10649 10647 10645 10643 10641 10639 10637 10635 10634 10632 10631 10630
10705 10704 10703 10702 10700 10699 10697 10694 10691 10689 10686 10685 10683 10681 10679 10677 10675 10673 10671 10669 10667 10664 10661 10659 10656 10653 10651 10648 10646 10645 10643 10642 10640 10639 10637 10635 10633 10631 10630 10628 10627 10626
10703 10702 10701 10700 10698 10697 10694 10690 10687 10686 10685 10684 10683 10680 10676 10674 10671 10669 10667 10665 10663 10661 10658 10655 10652 10649 10646 10644 10642 10640 10638 10636 10635 10634 10633 10631 10629 10627 10625 10624 10623 10621
10700 10700 10698 10697 10696 10694 10690 10688 10685 10683 10681 10682 10682 10679 10674 10670 10668 10665 10663 10661 10658 10656 10654 10651 10648 10645 10642 10640 10638 10636 10634 10632 10630 10628 10628 10626 10624 10623 10621 10619 10618 10617
10697 10696 10695 10694 10693 10690 10686 10683 10681 10679 10677 10676 10676 10674 10670 10666 10663 10660 10658 10656 10653 10650 10648 10645 10643 10641 10639 10636 10634 10632 10630 10628 10626 10624 10622 10621 10619 10617 10616 10614 10612 10611
10693 10692 10690 10689 10688 10685 10681 10679 10677 10674 10672 10670 10668 10666 10662 10660 10657 10655 10652 10650 10647 10645 10642 10640 10637 10636 10634 10631 10629 10627 10625 10623 10622 10619 10618 10616 10613 10611 10610 10608 10606 10604
10688 10687 10685 10683 10682 10679 10677 10674 10672 10669 10667 10664 10662 10659 10656 10654 10652 10649 10647 10645 10642 10640 10637 10634 10632 10630 10628 10626 10624 10622 10619 10618 10616 10614 10612 10611 10608 10606 10604 10602 10600 10599
10682 10681 10679 10677 10675 10673 10671 10669 10667 10664 10661 10659 10656 10654 10651 10649 10647 10645 10642 10640 10638 10635 10632 10629 10627 10625 10622 10620 10619 10617 10614 10612 10610 10608 10606 10605 10603 10602 10599 10596 10594 10593
10677 10675 10673 10671 10669 10667 10665 10663 10661 10658 10655 10653 10650 10648 10646 10644 10642 10640 10637 10635 10632 10629 10626 10623 10621 10619 10617 10614 10612 10610 10608 10606 10604 10602 10600 10598 10597 10595 10594 10591 10588 10587
10671 10669 10667 10665 10663 10661 10658 10656 10654 10652 10649 10647 10645 10643 10641 10638 10636 10633 10630 10627 10625 10622 10620 10617 10614 10612 10609 10607 10605 10603 10601 10599 10597 10594 10592 10590 10588 10587 10585 10584 10582 10581
10666 10663 10661 10659 10657 10655 10652 10650 10648 10646 10643 10641 10639 10637 10634 10631 10629 10626 10623 10620 10618 10615 10613 10610 10607 10605 10602 10599 10597 10595 10592 10590 10587 10585 10583 10580 10578 10576 10575 10574 10573 10572
10660 10657 10654 10652 10650 10648 10646 10644 10642 10640 10637 10635 10633 10630 10627 10624 10621 10619 10616 10613 10611 10609 10606 10604 10601 10597 10594 10591 10589 10587 10584 10581 10579 10576 10573 10571 10568 10566 10564 10563 10562 10561
10653 10651 10648 10646 10644 10642 10640 10638 10636 10634 10631 10628 10625 10622 10620 10618 10615 10612 10610 10607 10604 10602 10600 10597 10594 10591 10587 10584 10581 10578 10576 10573 10570 10567 10565 10562 10560 10557 10555 10554 10552 10551
10647 10645 10643 10641 10639 10637 10635 10632 10629 10627 10624 10622 10619 10616 10613 10611 10609 10607 10604 10601 10598 10595 10592 10590 10587 10583 10580 10576 10573 10569 10566 10563 10561 10558 10555 10553 10551 10549 10547 10545 10543 10541
10641 10639 10636 10634 10632 10630 10627 10624 10622 10619 10617 10615 10613 10610 10608 10606 10603 10601 10598 10594 10591 10587 10584 10581 10577 10574 10571 10567 10563 10560 10557 10554 10551 10549 10546 10544 10542 10540 10538 10536 10534 10532
10634 10632 10629 10627 10625 10622 10620 10617 10614 10612 10610 10608 10606 10604 10602 10599 10596 10593 10590 10586 10583 10579 10575 10572 10568 10564 10560 10557 10554 10550 10547 10545 10542 10540 10537 10535 10533 10531 10529 10527 10525 10523
10627 10625 10623 10621 10619 10616 10613 10611 10608 10606 10603 10601 10599 10597 10594 10591 10588 10585 10581 10578 10574 10570 10566 10562 10558 10554 10551 10547 10544 10541 10538 10536 10533 10531 10529 10526 10524 10522 10520 10518 10516 10514
10622 10619 10617 10615 10613 10610 10607 10604 10602 10599 10596 10594 10591 10588 10585 10582 10579 10576 10572 10569 10565 10561 10557 10553 10549 10545 10542 10538 10535 10532 10529 10527 10525 10522 10520 10518 10516 10513 10511 10509 10507 10505
10615 10613 10610 10608 10606 10603 10600 10597 10594 10591 10588 10585 10582 10579 10576 10573 10569 10566 10562 10558 10555 10551 10547 10543 10540 10536 10533 10529 10526 10524 10521 10518 10516 10514 10511 10509 10507 10505 10502 10500 10498 10496
10608 10606 10604 10601 10598 10596 10593 10589 10586 10583 10580 10577 10573 10570 10567 10563 10559 10556 10552 10548 10545 10542 10538 10534 10530 10527 10524 10521 10518 10515 10513 10510 10508 10505 10503 10500 10498 10496 10493 10491 10489 10487
10601 10599 10596 10593 10590 10587 10584 10581 10577 10574 10571 10568 10565 10561 10558 10554 10550 10547 10543 10540 10536 10533 10529 10525 10521 10517 10514 10511 10509 10506 10504 10502 10499 10497 10494 10491 10489 10486 10484 10481 10479 10477
10594 10591 10588 10585 10582 10579 10576 10573 10569 10567 10563 10560 10557 10553 10549 10546 10542 10539 10536 10532 10528 10524 10520 10516 10512 10508 10505 10502 10500 10498 10495 10493 10490 10488 10485 10482 10479 10476 10474 10472 10469 10467